• In Kazakhstan
  • List of Countries
  • For 7 days
  • Water Temperature
  • Satellite Maps
  • Weather Map
  • News
  • Weather Widgets
  • user-avatar
    Login

    Hourly Weather Worcester

    Today, 25 September, Monday

    Time Temperature Precipitation Wind Pressure Humidity
    00:00 +22°C° 0 mm 1 mps 748 mmHg 84%
    01:00 +22°C° 0 mm 1 mps 748 mmHg 79%
    02:00 +22°C° 0 mm 1 mps 748 mmHg 81%
    03:00 +22°C° 0 mm 1 mps 748 mmHg 83%
    04:00 +22°C° 0 mm 1 mps 748 mmHg 85%
    05:00 +22°C° 0 mm 1 mps 748 mmHg 84%
    06:00 +23°C° 0 mm 1 mps 748 mmHg 83%
    07:00 +23°C° 0 mm 1 mps 748 mmHg 81%
    08:00 +26°C° 0 mm 1 mps 749 mmHg 73%
    09:00 +28°C° 0 mm 1 mps 749 mmHg 64%
    10:00 +30°C° 0 mm 1 mps 749 mmHg 56%
    11:00 +31°C° 0 mm 1 mps 749 mmHg 53%
    12:00 +32°C° 0 mm 1 mps 749 mmHg 49%
    13:00 +34°C° 0 mm 1 mps 748 mmHg 46%
    14:00 +33°C° 0 mm 1 mps 748 mmHg 48%
    15:00 +32°C° 0 mm 1 mps 748 mmHg 51%
    16:00 +31°C° 0 mm 2 mps 747 mmHg 53%
    17:00 +28°C° 0 mm 2 mps 747 mmHg 62%
    18:00 +26°C° 0 mm 1 mps 747 mmHg 71%
    19:00 +23°C° 0 mm 1 mps 748 mmHg 80%
    20:00 +23°C° 0 mm 1 mps 748 mmHg 84%
    21:00 +22°C° 0 mm 1 mps 748 mmHg 89%
    22:00 +21°C° 0 mm 1 mps 748 mmHg 93%
    23:00 +20°C° 0 mm 1 mps 748 mmHg 94%

    Tomorrow, 26 September, Tuesday

    Time Temperature Precipitation Wind Pressure Humidity
    00:00 +20°C° 0 mm 1 mps 748 mmHg 95%
    01:00 +20°C° 0 mm 1 mps 748 mmHg 96%
    02:00 +19°C° 0 mm 1 mps 747 mmHg 96%
    03:00 +17°C° 0 mm 0 mps 747 mmHg 96%
    04:00 +17°C° 0 mm 0 mps 747 mmHg 96%
    05:00 +18°C° 0 mm 0 mps 747 mmHg 93%
    06:00 +19°C° 0 mm 0 mps 748 mmHg 90%
    07:00 +19°C° 0 mm 0 mps 748 mmHg 87%
    08:00 +23°C° 0 mm 0 mps 748 mmHg 76%
    09:00 +26°C° 0 mm 0 mps 748 mmHg 64%
    10:00 +29°C° 0 mm 0 mps 748 mmHg 53%
    11:00 +30°C° 0 mm 0 mps 748 mmHg 49%
    12:00 +33°C° 0 mm 1 mps 748 mmHg 44%
    13:00 +34°C° 0 mm 1 mps 747 mmHg 40%
    14:00 +33°C° 0 mm 1 mps 747 mmHg 43%
    15:00 +32°C° 0 mm 1 mps 747 mmHg 45%
    16:00 +31°C° 0 mm 1 mps 746 mmHg 47%
    17:00 +29°C° 0 mm 1 mps 746 mmHg 57%
    18:00 +26°C° 0 mm 1 mps 746 mmHg 66%
    19:00 +24°C° 0 mm 1 mps 747 mmHg 75%
    20:00 +23°C° 0 mm 1 mps 747 mmHg 79%
    21:00 +22°C° 0 mm 1 mps 746 mmHg 83%
    22:00 +21°C° 0 mm 1 mps 746 mmHg 87%
    23:00 +20°C° 0 mm 1 mps 746 mmHg 88%

    Day after tomorrow, 27 September, Wednesday

    Time Temperature Precipitation Wind Pressure Humidity
    00:00 +20°C° 0 mm 1 mps 746 mmHg 90%
    01:00 +19°C° 0 mm 1 mps 746 mmHg 92%
    02:00 +17°C° 0 mm 0 mps 746 mmHg 92%
    03:00 +17°C° 0 mm 0 mps 745 mmHg 92%
    04:00 +17°C° 0 mm 0 mps 745 mmHg 93%
    05:00 +18°C° 0 mm 0 mps 745 mmHg 90%
    06:00 +18°C° 0 mm 0 mps 745 mmHg 86%
    07:00 +19°C° 0 mm 0 mps 745 mmHg 83%
    08:00 +24°C° 0 mm 1 mps 745 mmHg 74%
    09:00 +27°C° 0 mm 1 mps 745 mmHg 64%
    10:00 +29°C° 0 mm 1 mps 745 mmHg 55%
    11:00 +30°C° 0.5 mm 2 mps 744 mmHg 57%
    12:00 +30°C° 0.5 mm 2 mps 744 mmHg 58%
    13:00 +31°C° 0.5 mm 3 mps 743 mmHg 60%
    14:00 +30°C° 1 mm 3 mps 743 mmHg 64%
    15:00 +29°C° 1 mm 3 mps 743 mmHg 69%
    16:00 +28°C° 1 mm 2 mps 742 mmHg 73%
    17:00 +27°C° 0 mm 2 mps 742 mmHg 78%
    18:00 +25°C° 0 mm 2 mps 742 mmHg 84%
    19:00 +24°C° 0 mm 2 mps 742 mmHg 90%
    20:00 +23°C° 0 mm 2 mps 742 mmHg 92%
    21:00 +23°C° 0 mm 2 mps 742 mmHg 94%
    22:00 +22°C° 0 mm 1 mps 741 mmHg 96%
    23:00 +22°C° 0 mm 1 mps 741 mmHg 96%

    28 September, Thursday

    Time Temperature Precipitation Wind Pressure Humidity
    00:00 +22°C° 0 mm 1 mps 741 mmHg 97%
    01:00 +21°C° 0 mm 1 mps 740 mmHg 97%
    02:00 +21°C° 0 mm 1 mps 740 mmHg 97%
    03:00 +21°C° 0 mm 1 mps 740 mmHg 97%
    04:00 +21°C° 0 mm 1 mps 739 mmHg 97%
    05:00 +20°C° 0 mm 2 mps 739 mmHg 93%
    06:00 +21°C° 0 mm 2 mps 739 mmHg 90%
    07:00 +21°C° 0 mm 3 mps 739 mmHg 87%
    08:00 +22°C° 0 mm 3 mps 740 mmHg 75%
    09:00 +25°C° 0 mm 3 mps 740 mmHg 62%
    10:00 +26°C° 0 mm 4 mps 740 mmHg 50%
    11:00 +26°C° 0 mm 4 mps 739 mmHg 48%
    12:00 +27°C° 0 mm 4 mps 739 mmHg 45%
    13:00 +27°C° 0 mm 4 mps 739 mmHg 42%
    14:00 +26°C° 0 mm 4 mps 739 mmHg 42%
    15:00 +25°C° 0 mm 4 mps 739 mmHg 42%
    16:00 +25°C° 0 mm 4 mps 739 mmHg 43%
    17:00 +21°C° 0 mm 4 mps 740 mmHg 47%
    18:00 +19°C° 0 mm 4 mps 740 mmHg 51%
    19:00 +17°C° 0 mm 3 mps 741 mmHg 55%
    20:00 +16°C° 0 mm 3 mps 741 mmHg 58%
    21:00 +14°C° 0 mm 3 mps 741 mmHg 61%
    22:00 +13°C° 0 mm 3 mps 742 mmHg 65%
    23:00 +13°C° 0 mm 3 mps 742 mmHg 66%

    29 September, Friday

    Time Temperature Precipitation Wind Pressure Humidity
    00:00 +12°C° 0 mm 3 mps 742 mmHg 66%
    01:00 +11°C° 0 mm 3 mps 742 mmHg 67%
    02:00 +10°C° 0 mm 3 mps 742 mmHg 69%
    03:00 +10°C° 0 mm 2 mps 742 mmHg 71%
    04:00 +9°C° 0 mm 2 mps 743 mmHg 74%
    05:00 +9°C° 0 mm 2 mps 743 mmHg 71%
    06:00 +10°C° 0 mm 2 mps 743 mmHg 69%
    07:00 +10°C° 0 mm 2 mps 743 mmHg 67%
    08:00 +12°C° 0 mm 3 mps 743 mmHg 58%
    09:00 +14°C° 0 mm 3 mps 743 mmHg 49%
    10:00 +17°C° 0 mm 3 mps 743 mmHg 40%
    11:00 +18°C° 0 mm 3 mps 743 mmHg 37%
    12:00 +20°C° 0 mm 3 mps 742 mmHg 35%
    13:00 +21°C° 0 mm 2 mps 742 mmHg 32%
    14:00 +21°C° 0 mm 2 mps 742 mmHg 33%
    15:00 +21°C° 0 mm 2 mps 742 mmHg 35%
    16:00 +21°C° 0 mm 2 mps 742 mmHg 36%
    17:00 +19°C° 0.1 mm 2 mps 742 mmHg 48%
    18:00 +17°C° 0.1 mm 2 mps 743 mmHg 60%
    19:00 +15°C° 0.1 mm 2 mps 743 mmHg 72%
    20:00 +14°C° 0.1 mm 2 mps 743 mmHg 78%
    21:00 +13°C° 0.1 mm 2 mps 743 mmHg 84%
    22:00 +12°C° 0.1 mm 2 mps 743 mmHg 90%
    23:00 +10°C° 0 mm 2 mps 743 mmHg 90%

    30 September, Saturday

    Time Temperature Precipitation Wind Pressure Humidity
    00:00 +9°C° 0 mm 2 mps 744 mmHg 90%
    01:00 +8°C° 0 mm 2 mps 744 mmHg 89%
    02:00 +8°C° 0 mm 2 mps 744 mmHg 89%
    03:00 +8°C° 0 mm 2 mps 745 mmHg 88%
    04:00 +7°C° 0 mm 2 mps 746 mmHg 88%
    05:00 +8°C° 0 mm 3 mps 746 mmHg 85%
    06:00 +8°C° 0 mm 3 mps 747 mmHg 82%
    07:00 +8°C° 0 mm 3 mps 747 mmHg 79%
    08:00 +10°C° 0 mm 4 mps 748 mmHg 66%
    09:00 +12°C° 0 mm 4 mps 748 mmHg 54%
    10:00 +14°C° 0 mm 5 mps 749 mmHg 41%
    11:00 +14°C° 0 mm 5 mps 749 mmHg 38%
    12:00 +15°C° 0 mm 5 mps 749 mmHg 36%
    13:00 +17°C° 0 mm 4 mps 749 mmHg 33%
    14:00 +17°C° 0 mm 4 mps 749 mmHg 34%
    15:00 +17°C° 0 mm 4 mps 749 mmHg 35%
    16:00 +15°C° 0 mm 4 mps 750 mmHg 35%
    17:00 +13°C° 0 mm 3 mps 750 mmHg 41%
    18:00 +12°C° 0 mm 2 mps 751 mmHg 47%
    19:00 +9°C° 0 mm 2 mps 751 mmHg 53%
    20:00 +9°C° 0 mm 2 mps 752 mmHg 55%
    21:00 +8°C° 0 mm 2 mps 752 mmHg 57%
    22:00 +8°C° 0 mm 1 mps 752 mmHg 60%
    23:00 +8°C° 0 mm 1 mps 753 mmHg 62%
    Show more